Weather History for KPSM - November, 2010

Change the Weather History Date:

Saturday, November 27, 2010

  Actual Average Record
Temperature  
Mean Temperature 34 °F -  
Max Temperature 41 °F 43 °F 66 °F (1976)
Min Temperature 26 °F 28 °F 12 °F (1994)
Degree Days  
Heating Degree Days 31    
Moisture  
Dew Point 20 °F    
Average Humidity 60    
Maximum Humidity 81    
Minimum Humidity 37    
Precipitation  
Precipitation 0.00 in - - ()
Sea Level Pressure  
Sea Level Pressure 29.67 in    
Wind  
Wind Speed 9 mph (West)    
Max Wind Speed 26 mph    
Max Gust Speed 34 mph    
Visibility 9 miles    
Events Snow    
Averages and records for this station are not official NWS values.
T = Trace of Precipitation, MM = Missing Value Source: NWS Daily Summary

Daily Weather History Graph

Daily Weather History Graph

Search for Another Location

Airport or City:

Trip Planner

Search our weather history database for the weather conditions in past years. The results will help you decide how hot, cold, wet, or windy it might be!

Date:

Astronomy

Nov. 27, 2010 Rise Set
Actual Time 6:50 AM EST 4:11 PM EST
Civil Twilight 6:18 AM EST 4:42 PM EST
Nautical Twilight 5:43 AM EST 5:17 PM EST
Astronomical Twilight 5:09 AM EST 5:51 PM EST
Moon 10:32 PM EST (11/27) 11:23 AM EST (11/27)
Length of Visible Light 10h 23m
Length of Day
9h 20m
Waning Gibbous, 63% of the Moon is Illuminated
Nov 27
Waning Gibbous
Nov 28
Last Quarter
Dec 5
New
Dec 13
First Quarter
Dec 21
Full

Hourly Weather History & Observations

Time (EST) Temp. Windchill Dew Point Humidity Pressure Visibility Wind Dir Wind Speed Gust Speed Precip Events Conditions
12:55 AM 30.0 °F 25.2 °F 19.8 °F 66% 29.60 in 10.0 mi SW 4.6 mph - N/A   Mostly Cloudy
1:55 AM 30.0 °F 25.2 °F 20.1 °F 67% 29.60 in 10.0 mi SSW 4.6 mph - N/A   Mostly Cloudy
2:55 AM 31.3 °F 26.6 °F 19.9 °F 63% 29.58 in 10.0 mi SW 4.6 mph - N/A   Mostly Cloudy
3:55 AM 31.3 °F - 20.8 °F 65% 29.57 in 10.0 mi Calm Calm - N/A   Overcast
4:55 AM 30.9 °F 25.2 °F 21.4 °F 68% 29.57 in 10.0 mi WSW 5.8 mph - N/A   Overcast
5:55 AM 30.9 °F 26.2 °F 21.4 °F 68% 29.57 in 10.0 mi South 4.6 mph - N/A   Overcast
6:55 AM 31.1 °F - 21.2 °F 67% 29.57 in 10.0 mi Calm Calm - N/A   Overcast
7:55 AM 30.2 °F 24.3 °F 21.4 °F 70% 29.58 in 10.0 mi SW 5.8 mph - N/A   Mostly Cloudy
8:55 AM 34.3 °F 28.4 °F 22.6 °F 62% 29.58 in 10.0 mi SW 6.9 mph - N/A   Mostly Cloudy
9:55 AM 38.7 °F 31.8 °F 23.0 °F 53% 29.57 in 10.0 mi WSW 10.4 mph - N/A   Mostly Cloudy
10:55 AM 39.6 °F 31.3 °F 21.2 °F 48% 29.55 in 10.0 mi SW 15.0 mph 19.6 mph N/A   Mostly Cloudy
11:55 AM 41.2 °F 32.7 °F 19.0 °F 41% 29.54 in 10.0 mi WSW 17.3 mph 24.2 mph N/A   Mostly Cloudy
12:55 PM 40.8 °F 32.0 °F 18.0 °F 40% 29.55 in 10.0 mi West 18.4 mph 25.3 mph N/A   Scattered Clouds
1:55 PM 41.9 °F 33.7 °F 17.8 °F 38% 29.56 in 10.0 mi WSW 17.3 mph - N/A   Scattered Clouds
2:55 PM 41.2 °F 33.0 °F 16.5 °F 37% 29.57 in 10.0 mi WSW 16.1 mph 27.6 mph N/A   Scattered Clouds
3:55 PM 39.6 °F 31.7 °F 18.0 °F 42% 29.61 in 10.0 mi WSW 13.8 mph 19.6 mph N/A   Mostly Cloudy
4:36 PM 39.2 °F 32.5 °F 19.4 °F 45% 29.65 in 6.0 mi WNW 10.4 mph 21.9 mph N/A   Unknown
4:55 PM 33.4 °F 20.3 °F 28.2 °F 81% 29.68 in 2.0 mi WNW 26.5 mph 34.5 mph 0.00 in Snow Light Snow Showers
5:10 PM 32.0 °F 20.5 °F 26.6 °F 80% 29.68 in 7.0 mi West 18.4 mph 31.1 mph N/A   Overcast
5:26 PM 33.8 °F 25.3 °F 26.6 °F 75% 29.69 in 7.0 mi West 11.5 mph 19.6 mph N/A Snow Light Snow Showers
5:55 PM 33.4 °F 24.3 °F 25.0 °F 71% 29.72 in 10.0 mi WNW 12.7 mph - 0.00 in   Mostly Cloudy
6:08 PM 32.0 °F 22.1 °F 24.8 °F 75% 29.72 in 6.0 mi NW 13.8 mph 18.4 mph N/A Snow Light Snow Showers
6:26 PM 32.0 °F 23.0 °F 24.8 °F 75% 29.74 in 10.0 mi NW 11.5 mph - N/A   Mostly Cloudy
6:55 PM 30.9 °F 23.5 °F 23.4 °F 74% 29.77 in 10.0 mi WNW 8.1 mph - 0.00 in   Partly Cloudy
7:55 PM 30.2 °F 22.6 °F 21.0 °F 69% 29.82 in 10.0 mi West 8.1 mph - N/A   Scattered Clouds
8:55 PM 30.6 °F 20.2 °F 16.2 °F 55% 29.86 in 10.0 mi NW 13.8 mph - N/A   Mostly Cloudy
9:55 PM 28.2 °F 18.9 °F 12.0 °F 51% 29.91 in 10.0 mi WNW 10.4 mph - N/A   Mostly Cloudy
10:55 PM 27.7 °F 18.2 °F 10.6 °F 49% 29.93 in 10.0 mi WNW 10.4 mph 20.7 mph N/A   Scattered Clouds
11:55 PM 26.8 °F 14.5 °F 11.5 °F 53% 29.96 in 10.0 mi WNW 16.1 mph 23.0 mph N/A   Partly Cloudy